Time,TemperatureF,DewpointF,PressureIn,WindDirection,WindDirectionDegrees,WindSpeedMPH,WindSpeedGustMPH,Humidity,HourlyPrecipIn,Conditions,Clouds,dailyrainin,SoftwareType,DateUTC
2013-11-13 00:01:00,53.2,50.3,30.41,SSE,159,5.0,10.0,90,0.00,,---,0.13,VWS V14.01,2013-11-13 08:01:00,
2013-11-13 00:06:00,53.1,50.2,30.41,SSW,208,4.0,5.0,90,0.00,,---,0.00,VWS V14.01,2013-11-13 08:06:00,
2013-11-13 00:11:00,53.1,50.2,30.41,SSW,198,4.0,4.0,90,0.00,,---,0.00,VWS V14.01,2013-11-13 08:11:00,
2013-11-13 00:16:00,53.0,50.2,30.41,SSW,196,6.0,8.0,90,0.00,,---,0.00,VWS V14.01,2013-11-13 08:16:00,
2013-11-13 00:21:00,52.9,50.0,30.41,SSW,204,7.0,10.0,90,0.00,,---,0.00,VWS V14.01,2013-11-13 08:21:00,
2013-11-13 00:26:00,52.8,50.0,30.41,SW,214,4.0,10.0,90,0.00,,---,0.00,VWS V14.01,2013-11-13 08:26:00,
2013-11-13 00:31:00,52.7,49.8,30.41,SSE,157,5.0,7.0,90,0.00,,---,0.00,VWS V14.01,2013-11-13 08:31:00,
2013-11-13 00:36:00,52.5,49.7,30.41,South,184,8.0,10.0,90,0.00,,---,0.00,VWS V14.01,2013-11-13 08:36:00,
2013-11-13 00:41:00,52.5,49.7,30.42,South,190,3.0,7.0,90,0.00,,---,0.00,VWS V14.01,2013-11-13 08:41:00,
2013-11-13 00:46:00,52.4,49.6,30.42,SSW,205,10.0,10.0,90,0.00,,---,0.00,VWS V14.01,2013-11-13 08:46:00,
2013-11-13 00:51:00,52.6,49.8,30.42,South,173,9.0,9.0,90,0.00,,---,0.00,VWS V14.01,2013-11-13 08:51:00,
2013-11-13 00:56:00,52.6,49.8,30.42,SE,134,4.0,7.0,90,0.00,,---,0.00,VWS V14.01,2013-11-13 08:56:00,
2013-11-13 01:01:00,52.6,49.8,30.42,South,187,1.0,5.0,90,0.00,,---,0.00,VWS V14.01,2013-11-13 09:01:00,
2013-11-13 01:06:00,52.7,49.8,30.42,South,182,5.0,8.0,90,0.00,,---,0.00,VWS V14.01,2013-11-13 09:06:00,
2013-11-13 01:11:00,52.8,50.0,30.42,SW,221,6.0,7.0,90,0.00,,---,0.00,VWS V14.01,2013-11-13 09:11:00,
2013-11-13 01:16:00,52.9,50.0,30.42,South,186,10.0,10.0,90,0.00,,---,0.00,VWS V14.01,2013-11-13 09:16:00,
2013-11-13 01:21:00,53.0,49.8,30.41,SSE,166,7.0,11.0,89,0.00,,---,0.00,VWS V14.01,2013-11-13 09:21:00,
2013-11-13 01:26:00,53.0,49.8,30.42,SSW,194,11.0,14.0,89,0.00,,---,0.00,VWS V14.01,2013-11-13 09:26:00,
2013-11-13 01:31:00,53.0,49.8,30.41,SSE,161,5.0,9.0,89,0.00,,---,0.00,VWS V14.01,2013-11-13 09:31:00,
2013-11-13 01:36:00,52.9,49.8,30.41,South,181,6.0,9.0,89,0.00,,---,0.00,VWS V14.01,2013-11-13 09:36:00,
2013-11-13 01:41:00,52.8,49.7,30.41,South,180,4.0,5.0,89,0.00,,---,0.00,VWS V14.01,2013-11-13 09:41:00,
2013-11-13 01:46:00,52.8,50.0,30.41,South,191,4.0,13.0,90,0.00,,---,0.00,VWS V14.01,2013-11-13 09:46:00,
2013-11-13 01:51:00,52.7,49.8,30.41,SSW,202,8.0,8.0,90,0.00,,---,0.00,VWS V14.01,2013-11-13 09:51:00,
2013-11-13 01:56:00,52.6,49.8,30.41,South,171,7.0,9.0,90,0.00,,---,0.00,VWS V14.01,2013-11-13 09:56:00,
2013-11-13 02:01:00,52.6,49.8,30.42,SW,214,6.0,11.0,90,0.00,,---,0.00,VWS V14.01,2013-11-13 10:01:00,
2013-11-13 02:06:00,52.7,49.8,30.41,SSW,205,4.0,6.0,90,0.00,,---,0.00,VWS V14.01,2013-11-13 10:06:00,
2013-11-13 02:11:00,52.7,49.8,30.41,SSW,202,9.0,10.0,90,0.00,,---,0.00,VWS V14.01,2013-11-13 10:11:00,
2013-11-13 02:16:00,52.7,49.8,30.41,South,190,2.0,6.0,90,0.00,,---,0.00,VWS V14.01,2013-11-13 10:16:00,
2013-11-13 02:21:00,52.8,50.0,30.41,SW,234,11.0,17.0,90,0.00,,---,0.00,VWS V14.01,2013-11-13 10:21:00,
2013-11-13 02:26:00,52.9,49.8,30.41,SSW,209,10.0,12.0,89,0.00,,---,0.00,VWS V14.01,2013-11-13 10:26:00,
2013-11-13 02:31:00,52.9,49.8,30.41,SSW,207,7.0,9.0,89,0.00,,---,0.00,VWS V14.01,2013-11-13 10:31:00,
2013-11-13 02:36:00,53.0,49.8,30.41,SSW,203,3.0,8.0,89,0.00,,---,0.00,VWS V14.01,2013-11-13 10:36:00,
2013-11-13 02:41:00,53.1,50.0,30.42,SSW,210,10.0,11.0,89,0.00,,---,0.00,VWS V14.01,2013-11-13 10:41:00,
2013-11-13 02:46:00,53.1,50.0,30.42,SSW,211,12.0,12.0,89,0.00,,---,0.00,VWS V14.01,2013-11-13 10:46:00,
2013-11-13 02:51:00,53.2,50.0,30.42,SSW,211,9.0,12.0,89,0.00,,---,0.00,VWS V14.01,2013-11-13 10:51:00,
2013-11-13 02:56:00,53.2,50.0,30.42,SW,221,4.0,12.0,89,0.00,,---,0.00,VWS V14.01,2013-11-13 10:56:00,
2013-11-13 03:01:00,53.2,50.0,30.41,South,188,16.0,19.0,89,0.00,,---,0.00,VWS V14.01,2013-11-13 11:01:00,
2013-11-13 03:06:00,53.3,50.2,30.42,SW,221,9.0,9.0,89,0.00,,---,0.00,VWS V14.01,2013-11-13 11:06:00,
2013-11-13 03:11:00,53.3,49.8,30.42,SSW,192,5.0,10.0,88,0.00,,---,0.00,VWS V14.01,2013-11-13 11:11:00,
2013-11-13 03:16:00,53.3,49.8,30.42,South,186,3.0,10.0,88,0.00,,---,0.00,VWS V14.01,2013-11-13 11:16:00,
2013-11-13 03:21:00,53.2,49.7,30.42,South,190,14.0,19.0,88,0.00,,---,0.00,VWS V14.01,2013-11-13 11:21:00,
2013-11-13 03:26:00,53.1,49.7,30.42,SSE,159,9.0,16.0,88,0.00,,---,0.00,VWS V14.01,2013-11-13 11:26:00,
2013-11-13 03:31:00,53.1,49.7,30.42,SSW,206,7.0,10.0,88,0.00,,---,0.00,VWS V14.01,2013-11-13 11:31:00,
2013-11-13 03:36:00,53.0,49.5,30.42,SSW,198,8.0,11.0,88,0.00,,---,0.00,VWS V14.01,2013-11-13 11:36:00,
2013-11-13 03:41:00,53.0,49.5,30.42,South,178,9.0,10.0,88,0.00,,---,0.00,VWS V14.01,2013-11-13 11:41:00,
2013-11-13 03:46:00,53.0,49.5,30.42,South,179,14.0,14.0,88,0.00,,---,0.00,VWS V14.01,2013-11-13 11:46:00,
2013-11-13 03:51:00,53.0,49.5,30.42,South,176,8.0,15.0,88,0.00,,---,0.00,VWS V14.01,2013-11-13 11:51:00,
2013-11-13 03:56:00,53.0,49.5,30.42,South,171,6.0,21.0,88,0.00,,---,0.00,VWS V14.01,2013-11-13 11:56:00,
2013-11-13 04:01:00,52.9,49.5,30.42,South,174,6.0,11.0,88,0.00,,---,0.00,VWS V14.01,2013-11-13 12:01:00,
2013-11-13 04:06:00,52.8,49.3,30.42,SSW,208,9.0,11.0,88,0.00,,---,0.00,VWS V14.01,2013-11-13 12:06:00,
2013-11-13 04:11:00,52.4,49.3,30.42,South,184,7.0,16.0,89,0.00,,---,0.00,VWS V14.01,2013-11-13 12:11:00,
2013-11-13 04:16:00,52.2,49.4,30.42,SW,217,10.0,14.0,90,0.00,,---,0.00,VWS V14.01,2013-11-13 12:16:00,
2013-11-13 04:21:00,52.1,49.3,30.42,SSE,157,6.0,12.0,90,0.00,,---,0.00,VWS V14.01,2013-11-13 12:21:00,
2013-11-13 04:26:00,52.1,49.3,30.42,SSW,207,7.0,7.0,90,0.00,,---,0.00,VWS V14.01,2013-11-13 12:26:00,
2013-11-13 04:31:00,52.1,49.3,30.42,SSW,198,11.0,12.0,90,0.00,,---,0.00,VWS V14.01,2013-11-13 12:31:00,
2013-11-13 04:36:00,52.1,49.3,30.42,SSW,198,8.0,14.0,90,0.00,,---,0.00,VWS V14.01,2013-11-13 12:36:00,
2013-11-13 04:41:00,52.1,49.3,30.42,SW,215,9.0,12.0,90,0.00,,---,0.00,VWS V14.01,2013-11-13 12:41:00,
2013-11-13 04:46:00,51.9,49.1,30.42,South,186,4.0,13.0,90,0.00,,---,0.00,VWS V14.01,2013-11-13 12:46:00,
2013-11-13 04:51:00,51.9,49.1,30.42,SSW,193,12.0,13.0,90,0.00,,---,0.00,VWS V14.01,2013-11-13 12:51:00,
2013-11-13 04:56:00,51.9,48.8,30.42,South,173,8.0,11.0,89,0.00,,---,0.00,VWS V14.01,2013-11-13 12:56:00,
2013-11-13 05:01:00,52.0,48.9,30.42,SSE,167,11.0,15.0,89,0.00,,---,0.00,VWS V14.01,2013-11-13 13:01:00,
2013-11-13 05:06:00,52.0,48.9,30.42,South,190,7.0,9.0,89,0.00,,---,0.00,VWS V14.01,2013-11-13 13:06:00,
2013-11-13 05:11:00,52.1,49.0,30.41,South,186,13.0,17.0,89,0.00,,---,0.00,VWS V14.01,2013-11-13 13:11:00,
2013-11-13 05:16:00,52.0,48.9,30.41,South,186,7.0,11.0,89,0.00,,---,0.00,VWS V14.01,2013-11-13 13:16:00,
2013-11-13 05:21:00,51.9,48.8,30.42,ESE,111,7.0,12.0,89,0.00,,---,0.00,VWS V14.01,2013-11-13 13:21:00,
2013-11-13 05:26:00,51.8,49.0,30.42,SSW,193,5.0,9.0,90,0.00,,---,0.00,VWS V14.01,2013-11-13 13:26:00,
2013-11-13 05:31:00,51.8,49.0,30.42,SSE,163,8.0,14.0,90,0.00,,---,0.00,VWS V14.01,2013-11-13 13:31:00,
2013-11-13 05:36:00,51.9,49.1,30.43,SSW,199,6.0,10.0,90,0.00,,---,0.00,VWS V14.01,2013-11-13 13:36:00,
2013-11-13 05:41:00,51.9,49.1,30.44,SW,216,14.0,14.0,90,0.00,,---,0.00,VWS V14.01,2013-11-13 13:41:00,
2013-11-13 05:46:00,51.9,49.1,30.44,South,172,6.0,9.0,90,0.00,,---,0.00,VWS V14.01,2013-11-13 13:46:00,
2013-11-13 05:51:00,51.9,49.1,30.44,SW,225,4.0,4.0,90,0.00,,---,0.00,VWS V14.01,2013-11-13 13:51:00,
2013-11-13 05:56:00,51.8,49.0,30.44,South,172,2.0,6.0,90,0.00,,---,0.00,VWS V14.01,2013-11-13 13:56:00,
2013-11-13 06:01:00,51.8,49.0,30.45,SSW,194,3.0,6.0,90,0.00,,---,0.00,VWS V14.01,2013-11-13 14:01:00,
2013-11-13 06:06:00,51.8,49.0,30.44,South,186,9.0,9.0,90,0.00,,---,0.00,VWS V14.01,2013-11-13 14:06:00,
2013-11-13 06:11:00,51.8,49.0,30.45,SSW,209,0.0,6.0,90,0.00,,---,0.00,VWS V14.01,2013-11-13 14:11:00,
2013-11-13 06:16:00,51.8,49.0,30.45,SSW,211,0.0,2.0,90,0.00,,---,0.00,VWS V14.01,2013-11-13 14:16:00,
2013-11-13 06:21:00,51.7,49.2,30.45,SSW,196,5.0,6.0,91,0.00,,---,0.00,VWS V14.01,2013-11-13 14:21:00,
2013-11-13 06:26:00,51.7,49.2,30.45,South,180,4.0,7.0,91,0.00,,---,0.00,VWS V14.01,2013-11-13 14:26:00,
2013-11-13 06:31:00,51.7,49.2,30.45,SSW,197,3.0,6.0,91,0.00,,---,0.00,VWS V14.01,2013-11-13 14:31:00,
2013-11-13 06:36:00,51.7,49.2,30.45,South,191,8.0,10.0,91,0.00,,---,0.00,VWS V14.01,2013-11-13 14:36:00,
2013-11-13 06:41:00,51.7,49.2,30.45,SSW,202,1.0,7.0,91,0.00,,---,0.00,VWS V14.01,2013-11-13 14:41:00,
2013-11-13 06:46:00,51.7,49.2,30.45,SSW,193,6.0,9.0,91,0.00,,---,0.00,VWS V14.01,2013-11-13 14:46:00,
2013-11-13 06:51:00,51.7,49.2,30.45,South,188,3.0,4.0,91,0.00,,---,0.00,VWS V14.01,2013-11-13 14:51:00,
2013-11-13 06:56:00,51.6,49.1,30.45,SSW,205,7.0,8.0,91,0.00,,---,0.00,VWS V14.01,2013-11-13 14:56:00,
2013-11-13 07:01:00,51.6,49.1,30.45,SW,220,5.0,6.0,91,0.00,,---,0.00,VWS V14.01,2013-11-13 15:01:00,
2013-11-13 07:06:00,51.6,49.1,30.44,SSW,212,4.0,7.0,91,0.00,,---,0.00,VWS V14.01,2013-11-13 15:06:00,
2013-11-13 07:11:00,51.6,49.1,30.44,SW,222,6.0,8.0,91,0.00,,---,0.00,VWS V14.01,2013-11-13 15:11:00,
2013-11-13 07:16:00,51.6,49.1,30.44,SW,232,6.0,8.0,91,0.00,,---,0.00,VWS V14.01,2013-11-13 15:16:00,
2013-11-13 07:21:00,51.5,49.0,30.45,SSW,202,5.0,10.0,91,0.00,,---,0.00,VWS V14.01,2013-11-13 15:21:00,
2013-11-13 07:26:00,51.5,49.0,30.45,SW,226,4.0,6.0,91,0.00,,---,0.00,VWS V14.01,2013-11-13 15:26:00,
2013-11-13 07:31:00,51.6,49.1,30.45,WSW,247,6.0,9.0,91,0.00,,---,0.00,VWS V14.01,2013-11-13 15:31:00,
2013-11-13 07:36:00,51.5,49.0,30.45,SW,215,6.0,7.0,91,0.00,,---,0.00,VWS V14.01,2013-11-13 15:36:00,
2013-11-13 07:41:00,51.5,49.0,30.46,SSW,209,6.0,9.0,91,0.00,,---,0.00,VWS V14.01,2013-11-13 15:41:00,
2013-11-13 07:46:00,51.6,49.1,30.46,SSW,208,4.0,8.0,91,0.00,,---,0.00,VWS V14.01,2013-11-13 15:46:00,
2013-11-13 07:51:00,51.6,49.1,30.46,South,188,7.0,7.0,91,0.00,,---,0.00,VWS V14.01,2013-11-13 15:51:00,
2013-11-13 07:56:00,51.6,49.1,30.46,SSW,203,5.0,9.0,91,0.00,,---,0.00,VWS V14.01,2013-11-13 15:56:00,
2013-11-13 08:01:00,51.7,49.2,30.46,SSE,164,4.0,6.0,91,0.00,,---,0.00,VWS V14.01,2013-11-13 16:01:00,
2013-11-13 08:06:00,51.7,48.9,30.46,SSW,207,5.0,7.0,90,0.00,,---,0.00,VWS V14.01,2013-11-13 16:06:00,
2013-11-13 08:11:00,51.7,49.2,30.46,SW,222,3.0,8.0,91,0.00,,---,0.00,VWS V14.01,2013-11-13 16:11:00,
2013-11-13 08:16:00,51.6,49.1,30.47,SSW,205,5.0,5.0,91,0.00,,---,0.00,VWS V14.01,2013-11-13 16:16:00,
2013-11-13 08:21:00,51.6,49.1,30.47,SW,218,5.0,6.0,91,0.00,,---,0.00,VWS V14.01,2013-11-13 16:21:00,
2013-11-13 08:27:00,51.6,49.1,30.47,SSW,208,3.0,4.0,91,0.00,,---,0.00,VWS V14.01,2013-11-13 16:27:00,
2013-11-13 08:32:00,51.6,49.1,30.47,SW,219,5.0,8.0,91,0.00,,---,0.00,VWS V14.01,2013-11-13 16:32:00,
2013-11-13 08:37:00,51.6,48.8,30.47,South,190,4.0,8.0,90,0.00,,---,0.00,VWS V14.01,2013-11-13 16:37:00,
2013-11-13 08:42:00,51.6,48.8,30.47,South,177,6.0,6.0,90,0.00,,---,0.00,VWS V14.01,2013-11-13 16:42:00,
2013-11-13 08:47:00,51.6,48.8,30.47,SW,230,2.0,4.0,90,0.00,,---,0.00,VWS V14.01,2013-11-13 16:47:00,
2013-11-13 08:52:00,51.6,48.8,30.47,SSW,200,7.0,9.0,90,0.00,,---,0.00,VWS V14.01,2013-11-13 16:52:00,
2013-11-13 08:57:00,51.6,48.8,30.47,SW,233,4.0,8.0,90,0.00,,---,0.00,VWS V14.01,2013-11-13 16:57:00,
2013-11-13 09:02:00,51.6,48.8,30.46,South,175,8.0,10.0,90,0.00,,---,0.00,VWS V14.01,2013-11-13 17:02:00,
2013-11-13 09:07:00,51.6,49.1,30.46,SW,222,5.0,8.0,91,0.00,,---,0.00,VWS V14.01,2013-11-13 17:07:00,
2013-11-13 09:12:00,51.7,48.9,30.47,South,178,5.0,6.0,90,0.00,,---,0.00,VWS V14.01,2013-11-13 17:12:00,
2013-11-13 09:17:00,51.7,48.9,30.47,SSW,207,1.0,3.0,90,0.00,,---,0.00,VWS V14.01,2013-11-13 17:17:00,
2013-11-13 09:22:00,51.7,48.9,30.47,South,189,5.0,7.0,90,0.00,,---,0.00,VWS V14.01,2013-11-13 17:22:00,
2013-11-13 09:27:00,51.8,49.0,30.47,SSW,203,2.0,4.0,90,0.00,,---,0.00,VWS V14.01,2013-11-13 17:27:00,
2013-11-13 09:32:00,51.9,49.1,30.47,SW,217,5.0,7.0,90,0.00,,---,0.00,VWS V14.01,2013-11-13 17:32:00,
2013-11-13 09:37:00,52.0,48.9,30.47,South,180,8.0,9.0,89,0.00,,---,0.00,VWS V14.01,2013-11-13 17:37:00,
2013-11-13 09:42:00,52.0,48.9,30.47,SSW,202,7.0,7.0,89,0.00,,---,0.00,VWS V14.01,2013-11-13 17:42:00,
2013-11-13 09:47:00,52.1,48.7,30.48,SSW,209,7.0,11.0,88,0.00,,---,0.00,VWS V14.01,2013-11-13 17:47:00,
2013-11-13 09:52:00,52.0,48.6,30.47,SSW,213,3.0,5.0,88,0.00,,---,0.00,VWS V14.01,2013-11-13 17:52:00,
2013-11-13 09:57:00,52.1,49.0,30.48,SSW,196,1.0,2.0,89,0.00,,---,0.00,VWS V14.01,2013-11-13 17:57:00,
2013-11-13 10:02:00,52.1,49.0,30.48,SSW,198,3.0,4.0,89,0.00,,---,0.00,VWS V14.01,2013-11-13 18:02:00,
2013-11-13 10:07:00,52.2,49.1,30.48,SSW,212,0.0,3.0,89,0.00,,---,0.00,VWS V14.01,2013-11-13 18:07:00,
2013-11-13 10:12:00,52.3,49.2,30.48,SSW,212,2.0,4.0,89,0.00,,---,0.00,VWS V14.01,2013-11-13 18:12:00,
2013-11-13 10:17:00,52.3,49.2,30.47,SSW,212,3.0,3.0,89,0.00,,---,0.00,VWS V14.01,2013-11-13 18:17:00,
2013-11-13 10:22:00,52.4,49.0,30.48,SSW,209,1.0,3.0,88,0.00,,---,0.00,VWS V14.01,2013-11-13 18:22:00,
2013-11-13 10:27:00,52.4,49.3,30.48,South,180,4.0,6.0,89,0.00,,---,0.00,VWS V14.01,2013-11-13 18:27:00,
2013-11-13 10:32:00,52.5,49.0,30.48,SSW,207,0.0,2.0,88,0.00,,---,0.00,VWS V14.01,2013-11-13 18:32:00,
2013-11-13 10:37:00,52.7,49.2,30.48,SSW,207,0.0,2.0,88,0.00,,---,0.00,VWS V14.01,2013-11-13 18:37:00,
2013-11-13 10:42:00,52.8,49.3,30.48,SW,221,4.0,6.0,88,0.00,,---,0.00,VWS V14.01,2013-11-13 18:42:00,
2013-11-13 10:47:00,52.9,49.1,30.48,WSW,254,1.0,2.0,87,0.00,,---,0.00,VWS V14.01,2013-11-13 18:47:00,
2013-11-13 10:52:00,53.0,49.2,30.48,WSW,254,0.0,2.0,87,0.00,,---,0.00,VWS V14.01,2013-11-13 18:52:00,
2013-11-13 10:57:00,53.1,49.3,30.47,SSW,205,1.0,5.0,87,0.00,,---,0.00,VWS V14.01,2013-11-13 18:57:00,
2013-11-13 11:02:00,53.3,49.5,30.47,SSW,208,3.0,7.0,87,0.00,,---,0.00,VWS V14.01,2013-11-13 19:02:00,
2013-11-13 11:07:00,53.4,49.6,30.47,SW,214,7.0,8.0,87,0.00,,---,0.00,VWS V14.01,2013-11-13 19:07:00,
2013-11-13 11:12:00,53.6,49.5,30.47,SSW,213,1.0,2.0,86,0.00,,---,0.00,VWS V14.01,2013-11-13 19:12:00,
2013-11-13 11:17:00,54.0,49.6,30.47,SW,223,4.0,5.0,85,0.00,,---,0.00,VWS V14.01,2013-11-13 19:17:00,
2013-11-13 11:22:00,54.1,49.7,30.47,WSW,248,2.0,2.0,85,0.00,,---,0.00,VWS V14.01,2013-11-13 19:22:00,
2013-11-13 11:27:00,54.1,49.7,30.47,SSW,207,2.0,5.0,85,0.00,,---,0.00,VWS V14.01,2013-11-13 19:27:00,
2013-11-13 11:32:00,54.1,49.4,30.46,SSW,205,0.0,5.0,84,0.00,,---,0.00,VWS V14.01,2013-11-13 19:32:00,
2013-11-13 11:37:00,54.6,49.9,30.46,SSW,211,4.0,5.0,84,0.00,,---,0.00,VWS V14.01,2013-11-13 19:37:00,
2013-11-13 11:42:00,54.9,49.5,30.46,SW,214,3.0,7.0,82,0.00,,---,0.00,VWS V14.01,2013-11-13 19:42:00,
2013-11-13 11:47:00,54.9,49.5,30.46,South,179,7.0,7.0,82,0.00,,---,0.00,VWS V14.01,2013-11-13 19:47:00,
2013-11-13 11:52:00,54.9,49.2,30.46,SW,221,4.0,7.0,81,0.00,,---,0.00,VWS V14.01,2013-11-13 19:52:00,
2013-11-13 11:57:00,54.7,49.0,30.46,SW,221,6.0,10.0,81,0.00,,---,0.00,VWS V14.01,2013-11-13 19:57:00,
2013-11-13 12:02:00,54.7,49.3,30.46,SSE,165,5.0,7.0,82,0.00,,---,0.00,VWS V14.01,2013-11-13 20:02:00,
2013-11-13 12:07:00,55.3,49.6,30.46,WSW,252,4.0,7.0,81,0.00,,---,0.00,VWS V14.01,2013-11-13 20:07:00,
2013-11-13 12:12:00,56.0,49.9,30.46,WSW,237,2.0,3.0,80,0.00,,---,0.00,VWS V14.01,2013-11-13 20:12:00,
2013-11-13 12:17:00,56.0,49.6,30.46,WSW,254,3.0,4.0,79,0.00,,---,0.00,VWS V14.01,2013-11-13 20:17:00,
2013-11-13 12:22:00,55.5,49.4,30.46,West,264,4.0,6.0,80,0.00,,---,0.00,VWS V14.01,2013-11-13 20:22:00,
2013-11-13 12:27:00,55.3,49.2,30.46,SSW,197,4.0,9.0,80,0.00,,---,0.00,VWS V14.01,2013-11-13 20:27:00,
2013-11-13 12:32:00,55.1,49.0,30.46,SSW,207,2.0,5.0,80,0.00,,---,0.00,VWS V14.01,2013-11-13 20:32:00,
2013-11-13 12:37:00,55.0,49.0,30.46,SSW,207,3.0,5.0,80,0.00,,---,0.00,VWS V14.01,2013-11-13 20:37:00,
2013-11-13 12:42:00,54.9,48.9,30.46,SSW,211,6.0,10.0,80,0.00,,---,0.00,VWS V14.01,2013-11-13 20:42:00,
2013-11-13 12:47:00,55.0,48.6,30.45,SW,223,5.0,6.0,79,0.00,,---,0.00,VWS V14.01,2013-11-13 20:47:00,
2013-11-13 12:52:00,55.2,48.8,30.45,SW,223,4.0,5.0,79,0.00,,---,0.00,VWS V14.01,2013-11-13 20:52:00,
2013-11-13 12:57:00,55.5,49.1,30.45,SSW,209,5.0,5.0,79,0.00,,---,0.00,VWS V14.01,2013-11-13 20:57:00,
2013-11-13 13:02:00,55.6,49.2,30.45,SSW,200,5.0,5.0,79,0.00,,---,0.00,VWS V14.01,2013-11-13 21:02:00,
2013-11-13 13:07:00,55.4,48.7,30.45,West,261,3.0,5.0,78,0.00,,---,0.00,VWS V14.01,2013-11-13 21:07:00,
2013-11-13 13:12:00,55.6,48.9,30.45,SSW,203,6.0,8.0,78,0.00,,---,0.00,VWS V14.01,2013-11-13 21:12:00,
2013-11-13 13:17:00,55.8,49.0,30.45,West,276,5.0,10.0,78,0.00,,---,0.00,VWS V14.01,2013-11-13 21:17:00,
2013-11-13 13:22:00,56.2,49.4,30.45,West,259,5.0,7.0,78,0.00,,---,0.00,VWS V14.01,2013-11-13 21:22:00,
2013-11-13 13:27:00,56.5,49.0,30.45,SSW,211,1.0,4.0,76,0.00,,---,0.00,VWS V14.01,2013-11-13 21:27:00,
2013-11-13 13:32:00,56.6,49.1,30.45,West,261,2.0,6.0,76,0.00,,---,0.00,VWS V14.01,2013-11-13 21:32:00,
2013-11-13 13:37:00,56.7,48.9,30.45,West,259,3.0,5.0,75,0.00,,---,0.00,VWS V14.01,2013-11-13 21:37:00,
2013-11-13 13:42:00,56.7,48.9,30.45,SSW,212,2.0,5.0,75,0.00,,---,0.00,VWS V14.01,2013-11-13 21:42:00,
2013-11-13 13:47:00,56.3,48.8,30.45,WSW,244,5.0,6.0,76,0.00,,---,0.00,VWS V14.01,2013-11-13 21:47:00,
2013-11-13 13:52:00,56.1,48.7,30.45,SSW,207,1.0,3.0,76,0.00,,---,0.00,VWS V14.01,2013-11-13 21:52:00,
2013-11-13 13:57:00,56.2,48.4,30.45,WSW,250,2.0,3.0,75,0.00,,---,0.00,VWS V14.01,2013-11-13 21:57:00,
2013-11-13 14:02:00,56.4,48.6,30.45,SW,227,0.0,2.0,75,0.00,,---,0.00,VWS V14.01,2013-11-13 22:02:00,
2013-11-13 14:07:00,56.6,48.4,30.45,West,264,6.0,8.0,74,0.00,,---,0.00,VWS V14.01,2013-11-13 22:07:00,
2013-11-13 14:12:00,56.6,48.4,30.45,WSW,247,1.0,1.0,74,0.00,,---,0.00,VWS V14.01,2013-11-13 22:12:00,
2013-11-13 14:17:00,56.8,48.6,30.45,SW,227,7.0,7.0,74,0.00,,---,0.00,VWS V14.01,2013-11-13 22:17:00,
2013-11-13 14:22:00,56.8,48.2,30.45,SW,214,6.0,8.0,73,0.00,,---,0.00,VWS V14.01,2013-11-13 22:22:00,
2013-11-13 14:27:00,56.5,47.6,30.45,SSW,210,0.0,5.0,72,0.00,,---,0.00,VWS V14.01,2013-11-13 22:27:00,
2013-11-13 14:32:00,56.6,47.7,30.45,SW,219,5.0,6.0,72,0.00,,---,0.00,VWS V14.01,2013-11-13 22:32:00,
2013-11-13 14:37:00,56.6,48.1,30.45,SSW,211,2.0,4.0,73,0.00,,---,0.00,VWS V14.01,2013-11-13 22:37:00,
2013-11-13 14:42:00,56.2,47.3,30.45,WSW,255,8.0,9.0,72,0.00,,---,0.00,VWS V14.01,2013-11-13 22:42:00,
2013-11-13 14:47:00,55.8,47.3,30.45,SSW,207,4.0,5.0,73,0.00,,---,0.00,VWS V14.01,2013-11-13 22:47:00,
2013-11-13 14:52:00,55.9,47.7,30.44,WSW,246,4.0,5.0,74,0.00,,---,0.00,VWS V14.01,2013-11-13 22:52:00,
2013-11-13 14:57:00,56.4,47.9,30.44,SSW,209,5.0,6.0,73,0.00,,---,0.00,VWS V14.01,2013-11-13 22:57:00,
2013-11-13 15:02:00,56.7,47.8,30.44,SSW,198,6.0,7.0,72,0.00,,---,0.00,VWS V14.01,2013-11-13 23:02:00,
2013-11-13 15:07:00,56.4,47.5,30.44,SSW,204,5.0,7.0,72,0.00,,---,0.00,VWS V14.01,2013-11-13 23:07:00,
2013-11-13 15:12:00,56.2,47.7,30.44,SW,216,6.0,6.0,73,0.00,,---,0.00,VWS V14.01,2013-11-13 23:12:00,
2013-11-13 15:17:00,56.2,48.0,30.44,South,189,4.0,4.0,74,0.00,,---,0.00,VWS V14.01,2013-11-13 23:17:00,
2013-11-13 15:22:00,56.3,47.8,30.44,SSW,205,5.0,6.0,73,0.00,,---,0.00,VWS V14.01,2013-11-13 23:22:00,
2013-11-13 15:27:00,55.9,47.7,30.44,SSW,211,4.0,6.0,74,0.00,,---,0.00,VWS V14.01,2013-11-13 23:27:00,
2013-11-13 15:32:00,55.7,47.5,30.44,South,191,4.0,6.0,74,0.00,,---,0.00,VWS V14.01,2013-11-13 23:32:00,
2013-11-13 15:37:00,55.3,47.5,30.44,SW,215,6.0,6.0,75,0.00,,---,0.00,VWS V14.01,2013-11-13 23:37:00,
2013-11-13 15:42:00,54.9,47.1,30.44,South,183,5.0,7.0,75,0.00,,---,0.00,VWS V14.01,2013-11-13 23:42:00,
2013-11-13 15:47:00,54.6,46.8,30.44,SSW,196,5.0,7.0,75,0.00,,---,0.00,VWS V14.01,2013-11-13 23:47:00,
2013-11-13 15:52:00,54.3,46.9,30.44,SSW,192,0.0,3.0,76,0.00,,---,0.00,VWS V14.01,2013-11-13 23:52:00,
2013-11-13 15:57:00,54.2,47.2,30.44,SSW,207,4.0,6.0,77,0.00,,---,0.00,VWS V14.01,2013-11-13 23:57:00,
2013-11-13 16:02:00,54.0,47.0,30.44,SSW,197,0.0,4.0,77,0.00,,---,0.00,VWS V14.01,2013-11-14 00:02:00,
2013-11-13 16:07:00,53.9,46.9,30.44,SSW,197,3.0,4.0,77,0.00,,---,0.00,VWS V14.01,2013-11-14 00:07:00,
2013-11-13 16:12:00,53.6,46.9,30.44,SSW,197,2.0,2.0,78,0.00,,---,0.00,VWS V14.01,2013-11-14 00:12:00,
2013-11-13 16:17:00,53.5,46.8,30.44,SSW,197,1.0,2.0,78,0.00,,---,0.00,VWS V14.01,2013-11-14 00:17:00,
2013-11-13 16:22:00,53.3,46.6,30.44,SSW,197,2.0,3.0,78,0.00,,---,0.00,VWS V14.01,2013-11-14 00:22:00,
2013-11-13 16:27:00,53.1,46.8,30.44,SSW,197,4.0,4.0,79,0.00,,---,0.00,VWS V14.01,2013-11-14 00:27:00,
2013-11-13 16:32:00,53.0,46.7,30.44,SSW,197,3.0,3.0,79,0.00,,---,0.00,VWS V14.01,2013-11-14 00:32:00,
2013-11-13 16:37:00,52.8,46.5,30.43,SSW,197,1.0,3.0,79,0.00,,---,0.00,VWS V14.01,2013-11-14 00:37:00,
2013-11-13 16:42:00,52.7,46.7,30.43,South,182,1.0,2.0,80,0.00,,---,0.00,VWS V14.01,2013-11-14 00:42:00,
2013-11-13 16:47:00,52.6,46.6,30.43,South,182,1.0,1.0,80,0.00,,---,0.00,VWS V14.01,2013-11-14 00:47:00,
2013-11-13 16:52:00,52.5,46.5,30.43,South,182,1.0,1.0,80,0.00,,---,0.00,VWS V14.01,2013-11-14 00:52:00,
2013-11-13 16:57:00,52.4,46.8,30.43,South,182,1.0,1.0,81,0.00,,---,0.00,VWS V14.01,2013-11-14 00:57:00,
2013-11-13 17:02:00,52.1,46.8,30.43,South,182,1.0,2.0,82,0.00,,---,0.00,VWS V14.01,2013-11-14 01:02:00,
2013-11-13 17:07:00,52.0,46.7,30.43,South,182,1.0,2.0,82,0.00,,---,0.00,VWS V14.01,2013-11-14 01:07:00,
2013-11-13 17:12:00,51.9,46.6,30.44,South,182,1.0,2.0,82,0.00,,---,0.00,VWS V14.01,2013-11-14 01:12:00,
2013-11-13 17:17:00,51.8,46.5,30.44,South,182,2.0,3.0,82,0.00,,---,0.00,VWS V14.01,2013-11-14 01:17:00,
2013-11-13 17:22:00,51.8,46.5,30.44,South,182,2.0,2.0,82,0.00,,---,0.00,VWS V14.01,2013-11-14 01:22:00,
2013-11-13 17:27:00,51.8,46.5,30.44,South,182,2.0,3.0,82,0.00,,---,0.00,VWS V14.01,2013-11-14 01:27:00,
2013-11-13 17:32:00,51.8,46.5,30.43,South,178,4.0,4.0,82,0.00,,---,0.00,VWS V14.01,2013-11-14 01:32:00,
2013-11-13 17:37:00,51.8,46.5,30.44,SSE,158,4.0,4.0,82,0.00,,---,0.00,VWS V14.01,2013-11-14 01:37:00,
2013-11-13 17:42:00,51.8,46.5,30.43,SE,142,5.0,5.0,82,0.00,,---,0.00,VWS V14.01,2013-11-14 01:42:00,
2013-11-13 17:47:00,51.9,46.6,30.43,SSE,152,0.0,1.0,82,0.00,,---,0.00,VWS V14.01,2013-11-14 01:47:00,
2013-11-13 17:52:00,51.9,46.6,30.44,SSE,152,0.0,0.0,82,0.00,,---,0.00,VWS V14.01,2013-11-14 01:52:00,
2013-11-13 17:57:00,51.9,46.9,30.44,SSE,152,0.0,0.0,83,0.00,,---,0.00,VWS V14.01,2013-11-14 01:57:00,
2013-11-13 18:02:00,51.8,46.5,30.43,SSE,152,0.0,0.0,82,0.00,,---,0.00,VWS V14.01,2013-11-14 02:02:00,
2013-11-13 18:07:00,51.7,46.4,30.43,SSE,152,0.0,1.0,82,0.00,,---,0.00,VWS V14.01,2013-11-14 02:07:00,
2013-11-13 18:12:00,51.8,46.5,30.43,SSE,152,0.0,0.0,82,0.00,,---,0.00,VWS V14.01,2013-11-14 02:12:00,
2013-11-13 18:17:00,51.8,46.2,30.43,SSE,155,1.0,2.0,81,0.00,,---,0.00,VWS V14.01,2013-11-14 02:17:00,
2013-11-13 18:22:00,51.8,46.5,30.43,SSE,161,1.0,1.0,82,0.00,,---,0.00,VWS V14.01,2013-11-14 02:22:00,
2013-11-13 18:27:00,51.8,46.2,30.43,SSE,163,0.0,0.0,81,0.00,,---,0.00,VWS V14.01,2013-11-14 02:27:00,
2013-11-13 18:32:00,51.9,46.3,30.43,SSE,163,0.0,0.0,81,0.00,,---,0.00,VWS V14.01,2013-11-14 02:32:00,
2013-11-13 18:37:00,51.9,46.3,30.43,SSE,163,0.0,2.0,81,0.00,,---,0.00,VWS V14.01,2013-11-14 02:37:00,
2013-11-13 18:42:00,51.9,46.6,30.42,SSE,163,1.0,2.0,82,0.00,,---,0.00,VWS V14.01,2013-11-14 02:42:00,
2013-11-13 18:47:00,51.8,46.2,30.42,South,187,3.0,5.0,81,0.00,,---,0.00,VWS V14.01,2013-11-14 02:47:00,
2013-11-13 18:52:00,52.0,46.4,30.42,South,187,4.0,6.0,81,0.00,,---,0.00,VWS V14.01,2013-11-14 02:52:00,
2013-11-13 18:57:00,52.2,46.5,30.42,South,180,3.0,5.0,81,0.00,,---,0.00,VWS V14.01,2013-11-14 02:57:00,
2013-11-13 19:02:00,52.2,46.2,30.42,SE,146,0.0,4.0,80,0.00,,---,0.00,VWS V14.01,2013-11-14 03:02:00,
2013-11-13 19:07:00,52.3,46.3,30.42,SSE,149,4.0,7.0,80,0.00,,---,0.00,VWS V14.01,2013-11-14 03:07:00,
2013-11-13 19:12:00,52.3,46.7,30.42,South,180,4.0,6.0,81,0.00,,---,0.00,VWS V14.01,2013-11-14 03:12:00,
2013-11-13 19:17:00,52.4,46.8,30.42,South,190,4.0,5.0,81,0.00,,---,0.00,VWS V14.01,2013-11-14 03:17:00,
2013-11-13 19:22:00,52.4,46.8,30.41,SSE,155,4.0,5.0,81,0.00,,---,0.00,VWS V14.01,2013-11-14 03:22:00,
2013-11-13 19:27:00,52.3,46.7,30.41,South,171,2.0,6.0,81,0.00,,---,0.00,VWS V14.01,2013-11-14 03:27:00,
2013-11-13 19:32:00,52.3,46.7,30.41,SSW,202,2.0,5.0,81,0.00,,---,0.00,VWS V14.01,2013-11-14 03:32:00,
2013-11-13 19:37:00,52.3,46.7,30.40,SSW,193,1.0,2.0,81,0.00,,---,0.00,VWS V14.01,2013-11-14 03:37:00,
2013-11-13 19:42:00,52.3,47.0,30.40,SSW,196,3.0,6.0,82,0.00,,---,0.00,VWS V14.01,2013-11-14 03:42:00,
2013-11-13 19:47:00,52.2,46.9,30.41,South,186,2.0,4.0,82,0.00,,---,0.00,VWS V14.01,2013-11-14 03:47:00,
2013-11-13 19:52:00,52.2,46.9,30.41,South,188,4.0,5.0,82,0.00,,---,0.00,VWS V14.01,2013-11-14 03:52:00,
2013-11-13 19:57:00,52.2,46.9,30.41,South,175,4.0,4.0,82,0.00,,---,0.00,VWS V14.01,2013-11-14 03:57:00,
2013-11-13 20:02:00,52.1,46.8,30.40,SE,139,1.0,4.0,82,0.00,,---,0.00,VWS V14.01,2013-11-14 04:02:00,
2013-11-13 20:07:00,52.1,46.8,30.41,SSE,150,2.0,4.0,82,0.00,,---,0.00,VWS V14.01,2013-11-14 04:07:00,
2013-11-13 20:12:00,52.0,47.0,30.41,South,178,4.0,5.0,83,0.00,,---,0.00,VWS V14.01,2013-11-14 04:12:00,
2013-11-13 20:17:00,51.9,46.9,30.40,South,186,2.0,3.0,83,0.00,,---,0.00,VWS V14.01,2013-11-14 04:17:00,
2013-11-13 20:22:00,51.9,46.9,30.40,South,175,0.0,2.0,83,0.00,,---,0.00,VWS V14.01,2013-11-14 04:22:00,
2013-11-13 20:27:00,51.9,46.9,30.40,SSE,162,4.0,7.0,83,0.00,,---,0.00,VWS V14.01,2013-11-14 04:27:00,
2013-11-13 20:32:00,52.0,47.0,30.41,SSE,154,1.0,4.0,83,0.00,,---,0.00,VWS V14.01,2013-11-14 04:32:00,
2013-11-13 20:37:00,52.0,47.0,30.41,SSE,148,2.0,4.0,83,0.00,,---,0.00,VWS V14.01,2013-11-14 04:37:00,
2013-11-13 20:42:00,52.0,47.0,30.41,SSE,157,5.0,5.0,83,0.00,,---,0.00,VWS V14.01,2013-11-14 04:42:00,
2013-11-13 20:47:00,52.1,47.1,30.41,South,178,0.0,4.0,83,0.00,,---,0.00,VWS V14.01,2013-11-14 04:47:00,
2013-11-13 20:52:00,52.1,46.8,30.41,South,181,3.0,8.0,82,0.00,,---,0.00,VWS V14.01,2013-11-14 04:52:00,
2013-11-13 20:57:00,52.1,46.8,30.41,SSW,195,4.0,6.0,82,0.00,,---,0.00,VWS V14.01,2013-11-14 04:57:00,
2013-11-13 21:01:00,52.1,46.8,30.41,South,172,2.0,5.0,82,0.00,,---,0.00,VWS V14.01,2013-11-14 05:01:00,
2013-11-13 21:02:00,52.0,46.7,30.41,South,172,2.0,4.0,82,0.00,,---,0.00,VWS V14.01,2013-11-14 05:02:00,
2013-11-13 21:03:00,52.0,46.7,30.41,South,172,2.0,4.0,82,0.00,,---,0.00,VWS V14.01,2013-11-14 05:03:00,
2013-11-13 21:08:00,52.0,46.7,30.41,South,170,4.0,5.0,82,0.00,,---,0.00,VWS V14.01,2013-11-14 05:08:00,
2013-11-13 21:13:00,52.0,47.0,30.41,South,188,2.0,4.0,83,0.00,,---,0.00,VWS V14.01,2013-11-14 05:13:00,
2013-11-13 21:18:00,51.9,46.9,30.41,South,180,1.0,5.0,83,0.00,,---,0.00,VWS V14.01,2013-11-14 05:18:00,
2013-11-13 21:23:00,51.9,46.9,30.40,SSE,164,2.0,4.0,83,0.00,,---,0.00,VWS V14.01,2013-11-14 05:23:00,
2013-11-13 21:28:00,51.9,46.9,30.40,South,170,2.0,5.0,83,0.00,,---,0.00,VWS V14.01,2013-11-14 05:28:00,
2013-11-13 21:33:00,51.8,46.8,30.40,South,170,2.0,2.0,83,0.00,,---,0.00,VWS V14.01,2013-11-14 05:33:00,
2013-11-13 21:38:00,51.8,46.8,30.39,SSE,165,1.0,5.0,83,0.00,,---,0.00,VWS V14.01,2013-11-14 05:38:00,
2013-11-13 21:43:00,51.7,46.7,30.39,South,175,5.0,6.0,83,0.00,,---,0.00,VWS V14.01,2013-11-14 05:43:00,
2013-11-13 21:48:00,51.6,46.6,30.39,SSE,153,2.0,6.0,83,0.00,,---,0.00,VWS V14.01,2013-11-14 05:48:00,
2013-11-13 21:53:00,51.5,46.8,30.39,SSE,168,2.0,5.0,84,0.00,,---,0.00,VWS V14.01,2013-11-14 05:53:00,
2013-11-13 21:58:00,51.4,46.7,30.39,SSW,195,0.0,1.0,84,0.00,,---,0.00,VWS V14.01,2013-11-14 05:58:00,
2013-11-13 22:03:00,51.3,46.6,30.38,South,184,3.0,3.0,84,0.00,,---,0.00,VWS V14.01,2013-11-14 06:03:00,
2013-11-13 22:08:00,51.2,46.5,30.38,SSW,192,3.0,3.0,84,0.00,,---,0.00,VWS V14.01,2013-11-14 06:08:00,
2013-11-13 22:13:00,51.0,46.7,30.38,SSW,198,1.0,5.0,85,0.00,,---,0.00,VWS V14.01,2013-11-14 06:13:00,
2013-11-13 22:18:00,50.9,46.6,30.38,SSW,192,3.0,3.0,85,0.00,,---,0.00,VWS V14.01,2013-11-14 06:18:00,
2013-11-13 22:23:00,50.8,46.5,30.38,SSW,199,2.0,4.0,85,0.00,,---,0.00,VWS V14.01,2013-11-14 06:23:00,
2013-11-13 22:28:00,50.8,46.5,30.38,SSE,165,5.0,7.0,85,0.00,,---,0.00,VWS V14.01,2013-11-14 06:28:00,
2013-11-13 22:33:00,50.9,46.6,30.37,SSE,161,6.0,6.0,85,0.00,,---,0.00,VWS V14.01,2013-11-14 06:33:00,
2013-11-13 22:38:00,51.0,46.7,30.37,South,172,4.0,6.0,85,0.00,,---,0.00,VWS V14.01,2013-11-14 06:38:00,
2013-11-13 22:43:00,51.0,46.7,30.37,South,171,6.0,7.0,85,0.00,,---,0.00,VWS V14.01,2013-11-14 06:43:00,
2013-11-13 22:48:00,50.9,46.6,30.36,South,189,6.0,6.0,85,0.00,,---,0.00,VWS V14.01,2013-11-14 06:48:00,
2013-11-13 22:53:00,50.8,46.5,30.37,SSW,198,2.0,3.0,85,0.00,,---,0.00,VWS V14.01,2013-11-14 06:53:00,
2013-11-13 22:58:00,50.7,46.4,30.37,SSW,202,0.0,2.0,85,0.00,,---,0.00,VWS V14.01,2013-11-14 06:58:00,
2013-11-13 23:03:00,50.5,46.2,30.37,SSW,202,3.0,3.0,85,0.00,,---,0.00,VWS V14.01,2013-11-14 07:03:00,
2013-11-13 23:08:00,50.3,46.3,30.36,SSW,202,2.0,3.0,86,0.00,,---,0.00,VWS V14.01,2013-11-14 07:08:00,
2013-11-13 23:13:00,50.2,46.2,30.36,SSW,202,2.0,2.0,86,0.00,,---,0.00,VWS V14.01,2013-11-14 07:13:00,
2013-11-13 23:18:00,50.2,46.2,30.36,SSW,202,0.0,2.0,86,0.00,,---,0.00,VWS V14.01,2013-11-14 07:18:00,
2013-11-13 23:23:00,50.1,46.1,30.36,SSW,202,1.0,1.0,86,0.00,,---,0.00,VWS V14.01,2013-11-14 07:23:00,
2013-11-13 23:28:00,50.0,46.3,30.36,SSW,202,1.0,2.0,87,0.00,,---,0.00,VWS V14.01,2013-11-14 07:28:00,
2013-11-13 23:33:00,49.9,46.2,30.36,SSW,202,1.0,2.0,87,0.00,,---,0.00,VWS V14.01,2013-11-14 07:33:00,
2013-11-13 23:38:00,49.7,46.0,30.36,SSW,202,0.0,2.0,87,0.00,,---,0.00,VWS V14.01,2013-11-14 07:38:00,
2013-11-13 23:43:00,49.6,45.9,30.35,SSW,202,0.0,0.0,87,0.00,,---,0.00,VWS V14.01,2013-11-14 07:43:00,
2013-11-13 23:48:00,49.5,46.1,30.35,SSW,202,2.0,2.0,88,0.00,,---,0.00,VWS V14.01,2013-11-14 07:48:00,
2013-11-13 23:53:00,49.4,46.0,30.35,SSW,202,0.0,1.0,88,0.00,,---,0.00,VWS V14.01,2013-11-14 07:53:00,
2013-11-13 23:58:00,49.1,45.7,30.35,SSW,202,0.0,0.0,88,0.00,,---,0.00,VWS V14.01,2013-11-14 07:58:00,